Flag for French Polynesia Weather past 2 weeks in Papeete, Tahiti, French Polynesia

Now
81 °F

Broken clouds.


Feels Like: 85 °F
Forecast: 80 / 83 °F
Wind: 5 mph from Northeast

Location: Tahiti-Faaa

Current Time: Dec 19, 2014 at 5:53:18 PM

Latest Report: Dec 19, 2014 at 5:00 PM


Visibility: N/A

Pressure: 29.74 "Hg

Humidity: 79%

Dew point: 73 °F

Location of PapeeteLocation

Historic Weather in Papeete — Graph

°F

Papeete temperature yesterday

Maximum temperature yesterday: 84 °F (at 10:30 AM)
Minimum temperature yesterday: 77 °F (at 12:00 PM)
Average temperature yesterday: 81 °F

Past Weeks' High & Low Weather Summary

 TemperatureHumidityPressure
High88 °F (Dec 6, 10:30 AM)94% (Dec 8, 5:00 AM)29.95 "Hg (Dec 8, 5:00 AM)
Low75 °F (Dec 5, 3:30 AM)55% (Dec 15, 1:30 PM)29.74 "Hg (Dec 7, 3:30 PM)
Average81 °F76%29.85 "Hg
* Reported Dec 4 4:00 PM — Dec 19 4:30 PM, Papeete, Weather by CustomWeather, © 2014

Note: Actual official high and low records may vary slightly from our data, if they occured in-between our weather recording intervals... More about our weather records

Advertising

Papeete weather history for previous 24 hours

 ConditionsComfort  
Time TempWeatherWind HumidityBarometerVisibility
4:30 PM
Dec 19
81 °FThundershowers. Broken clouds.2 mph79%29.74 "HgN/A
4:00 PM81 °FThundershowers. Broken clouds.2 mph79%29.74 "HgN/A
3:30 PM81 °FThundershowers. Broken clouds.8 mph84%29.74 "HgN/A
3:00 PM81 °FBroken clouds.10 mph84%29.74 "HgN/A
2:30 PM81 °FScattered showers. Broken clouds.12 mph84%29.74 "HgN/A
2:00 PM81 °FScattered showers. Broken clouds.10 mph79%29.74 "HgN/A
1:30 PM79 °FScattered showers. Broken clouds.9 mph89%29.77 "HgN/A
1:00 PM79 °FPartly sunny.10 mph89%29.77 "HgN/A
12:30 PM79 °FPartly sunny.5 mph89%29.77 "HgN/A
12:00 PM79 °FThunderstorms. Broken clouds.7 mph89%29.77 "HgN/A
11:30 AM79 °FThunderstorms. Broken clouds.10 mph89%29.80 "HgN/A
11:00 AM81 °FThunderstorms. Broken clouds.3 mph84%29.80 "Hg5 mi
10:30 AM81 °FThundershowers. Broken clouds.3 mph74%29.80 "HgN/A
10:00 AM82 °FThundershowers. Broken clouds.5 mph70%29.80 "HgN/A
9:30 AM81 °FScattered showers. Broken clouds.8 mph74%29.80 "HgN/A
9:00 AM81 °FScattered showers. Broken clouds.7 mph79%29.83 "HgN/A
8:30 AM79 °FScattered showers. Broken clouds.8 mph84%29.83 "HgN/A
8:00 AM79 °FScattered showers. Broken clouds.9 mph84%29.80 "HgN/A
7:30 AM81 °FSprinkles. Broken clouds.13 mph84%29.80 "Hg6 mi
7:00 AM82 °FPartly sunny.5 mph74%29.80 "HgN/A
6:30 AM81 °FBroken clouds.No wind74%29.77 "HgN/A
6:00 AM79 °FBroken clouds.7 mph79%29.80 "HgN/A
5:30 AM77 °FPartly sunny.5 mph83%29.77 "HgN/A
5:00 AM77 °FPassing clouds.2 mph83%29.77 "HgN/A
4:30 AM79 °FMostly cloudy.5 mph79%29.77 "HgN/A
4:00 AM79 °FPassing clouds.3 mph79%29.77 "HgN/A
3:30 AM77 °FWarm.3 mph83%29.77 "HgN/A
3:00 AM77 °FPartly cloudy.3 mph89%29.77 "HgN/A
2:30 AM77 °FPartly cloudy.2 mph89%29.74 "HgN/A
2:00 AM79 °FLight rain. Partly cloudy.1 mph84%29.77 "Hg5 mi
1:30 AM79 °FLight rain. Partly cloudy.No wind79%29.80 "Hg5 mi
1:00 AM79 °FScattered showers. Partly cloudy.1 mph79%29.80 "HgN/A
12:30 AM79 °FScattered showers. Partly cloudy.2 mph79%29.80 "HgN/A
12:00 AM79 °FScattered showers. Passing clouds.3 mph79%29.83 "HgN/A
11:30 PM
Dec 18
81 °FScattered showers. Partly cloudy.2 mph74%29.83 "HgN/A
11:00 PM81 °FScattered showers. Partly cloudy.2 mph74%29.83 "HgN/A
10:30 PM81 °FScattered showers. Partly cloudy.3 mph74%29.83 "HgN/A
10:00 PM81 °FScattered showers. Partly cloudy.6 mph74%29.83 "HgN/A
9:30 PM81 °FScattered showers. Partly cloudy.3 mph74%29.83 "HgN/A
9:00 PM81 °FScattered showers. Partly cloudy.5 mph74%29.83 "HgN/A
8:30 PM81 °FScattered showers. Partly cloudy.3 mph74%29.83 "HgN/A
8:00 PM81 °FScattered showers. Partly cloudy.3 mph74%29.83 "HgN/A
7:30 PM81 °FScattered showers. Partly cloudy.2 mph74%29.83 "HgN/A
7:00 PM81 °FScattered showers. Partly cloudy.3 mph79%29.83 "HgN/A
6:30 PM81 °FPartly cloudy.5 mph79%29.80 "HgN/A
6:00 PM82 °FBroken clouds.6 mph74%29.80 "HgN/A
5:30 PM82 °FBroken clouds.3 mph70%29.77 "HgN/A
5:00 PM82 °FBroken clouds.2 mph70%29.77 "HgN/A
Weather by CustomWeather, © 2014

See weather overviewHow to use our weather pages